Language: 


Des rapports , des résumés tant et plus, au choix de chacun....


Données statistiques de la station
Quotidien Rapport Janvier 15, 2018 Unités:  Métrique    Anglais   les deux
« Précédent Jour
Suivant Jour »
Quotidien Hebdomadaire Mensuel Annuel Actuel
  Haut: Bas: Moyen:
Température: -17.8 °C -17.9 °C -14.9 °C
Pt de rosée: -17.8 °C -18.3 °C -15 °C
Humidité: Humidity % 90 % 96 %
Vitesse du vent: 0 km/h 0 km/h 21.9 km/h
Rafales: 0 km/h - -
Vent:- - SW
Pression: 0 hPa 33592.5 hPa -
Précipitation: 218.44 mm    
Historical Graphs
 
 
Données statistiques pour Janvier 15, 2018
Heure Température Point de rosée Pression Vent Vitesse du vent Refales Humidité Pluie (taux horaire)
-17.8 °C -17.8 °C 0 hPa Calm     Humidity % 0 mm
00:16 -17.7 °C -17.8 °C 34405.1 hPa Calm     98 % 0 mm
00:25 -17.8 °C -18.3 °C 34405.1 hPa Calm     98 % 0 mm
00:31 -17.9 °C -18.3 °C 34405.1 hPa Calm     98 % 0 mm
00:38 -17.9 °C -18.3 °C 34405.1 hPa South 8 km/h 8 km/h 98 % 0 mm
00:48 -17.8 °C -18.3 °C 34371.3 hPa Calm   9.3 km/h 98 % 0 mm
01:14 -17.4 °C -17.2 °C 34371.3 hPa SSW 7.6 km/h 14.5 km/h 98 % 0 mm
01:21 -17.3 °C -17.2 °C 34371.3 hPa South 9.3 km/h 11.1 km/h 98 % 0 mm
01:31 -17.2 °C -17.2 °C 34371.3 hPa SSW 6.9 km/h 14 km/h 98 % 0 mm
01:36 -17.2 °C -17.2 °C 34371.3 hPa SSW 9.8 km/h 11.6 km/h 98 % 0 mm
01:49 -17.2 °C -17.2 °C 34371.3 hPa SSW 2.9 km/h 11.6 km/h 98 % 0 mm
01:54 -17.2 °C -17.2 °C 34371.3 hPa Calm   14.5 km/h 98 % 0 mm
02:02 -17.2 °C -17.2 °C 34371.3 hPa Calm   9.8 km/h 98 % 0 mm
02:09 -17.2 °C -17.2 °C 34371.3 hPa SSW 11.1 km/h 11.1 km/h 98 % 0 mm
02:18 -17.2 °C -17.2 °C 34337.4 hPa SSW 10.3 km/h 14 km/h 98 % 0 mm
02:23 -17.2 °C -17.2 °C 34337.4 hPa Calm   14.5 km/h 98 % 0 mm
02:32 -17.2 °C -17.2 °C 34371.3 hPa South 7.6 km/h 12.2 km/h 98 % 0 mm
02:51 -17.2 °C -17.2 °C 34337.4 hPa Calm   10.3 km/h 98 % 0 mm
02:56 -17.2 °C -17.2 °C 34337.4 hPa SSW 8.9 km/h 11.1 km/h 98 % 0 mm
03:11 -17.2 °C -17.2 °C 34303.6 hPa SSW 18.7 km/h 20.9 km/h 98 % 0 mm
03:25 -17.2 °C -17.2 °C 34303.6 hPa SSW 14.5 km/h 20.9 km/h 98 % 0 mm
03:31 -17.2 °C -17.2 °C 34303.6 hPa SSW 18.7 km/h 25.4 km/h 98 % 0 mm
03:37 -17.2 °C -17.2 °C 34303.6 hPa South 16.3 km/h 20.9 km/h 98 % 0 mm
03:46 -17.2 °C -17.2 °C 34303.6 hPa WSW 33.6 km/h 36.5 km/h 98 % 0 mm
04:07 -17.2 °C -17.2 °C 34269.7 hPa SW 22.5 km/h 33.6 km/h 98 % 0 mm
04:14 -17.2 °C -17.2 °C 34269.7 hPa SSW 16.9 km/h 34.1 km/h 98 % 0 mm
04:39 -17.2 °C -17.2 °C 34303.6 hPa SSW 25.4 km/h 27.7 km/h 98 % 0 mm
04:49 -17.2 °C -17.2 °C 34303.6 hPa SSW 23.8 km/h 33.2 km/h 98 % 0 mm
04:55 -17.2 °C -17.2 °C 34303.6 hPa SW 19.2 km/h 33.2 km/h 98 % 0 mm
05:05 -17.2 °C -17.2 °C 34303.6 hPa SW 14.5 km/h 28.5 km/h 98 % 0 mm
05:10 -17.2 °C -17.2 °C 34303.6 hPa SSW 51 km/h 51 km/h 98 % 0 mm
05:15 -17.2 °C -17.2 °C 34303.6 hPa SSW 11.1 km/h 51 km/h 98 % 0 mm
05:20 -17.2 °C -17.2 °C 34303.6 hPa South 12.7 km/h 19.6 km/h 98 % 0 mm
05:25 -17.2 °C -17.2 °C 34269.7 hPa South 12.7 km/h 22.5 km/h 98 % 0 mm
05:45 -17.2 °C -17.2 °C 34235.8 hPa SSW 20.9 km/h 22.5 km/h 98 % 0 mm
05:54 -17.2 °C -17.2 °C 34235.8 hPa SSW 17.4 km/h 28.5 km/h 98 % 0 mm
06:00 -17.2 °C -17.2 °C 34235.8 hPa South 15.6 km/h 28.5 km/h 98 % 0 mm
06:16 -17.2 °C -17.2 °C 34235.8 hPa SSW 19.6 km/h 31.9 km/h 98 % 0 mm
06:21 -17.2 °C -17.2 °C 34235.8 hPa SSW 15 km/h 31.9 km/h 98 % 0 mm
06:26 -17.2 °C -17.2 °C 34235.8 hPa SSW 14.5 km/h 33.6 km/h 98 % 0 mm
06:34 -17.2 °C -17.2 °C 34235.8 hPa South 15 km/h 33.6 km/h 98 % 0 mm
06:53 -17.2 °C -17.2 °C 34235.8 hPa SSW 16.9 km/h 29.5 km/h 98 % 0 mm
07:11 -17.2 °C -17.2 °C 34198.6 hPa SSW 16.9 km/h 27.7 km/h 98 % 0 mm
07:16 -17.2 °C -17.2 °C 34198.6 hPa South 8 km/h 26.2 km/h 98 % 0 mm
07:29 -17.2 °C -17.2 °C 34164.7 hPa SW 28.5 km/h 28.5 km/h 98 % 0 mm
07:34 -17.2 °C -17.2 °C 34164.7 hPa South 19.2 km/h 28.5 km/h 98 % 0 mm
07:43 -17.2 °C -17.2 °C 34164.7 hPa South 16.9 km/h 28.5 km/h 98 % 0 mm
07:54 -17.2 °C -17.2 °C 34164.7 hPa SSW 16.9 km/h 27.7 km/h 98 % 0 mm
08:00 -17.2 °C -17.2 °C 34164.7 hPa SW 20.3 km/h 27.2 km/h 98 % 0 mm
08:07 -17.2 °C -17.2 °C 34164.7 hPa SSW 15.6 km/h 34.1 km/h 98 % 0 mm
08:18 -17.2 °C -17.2 °C 34164.7 hPa South 22.5 km/h 33.6 km/h 98 % 0 mm
08:26 -17.2 °C -17.2 °C 34130.9 hPa SSE 19.2 km/h 32.3 km/h 98 % 0 mm
08:34 -17.2 °C -17.2 °C 34130.9 hPa SSW 16.9 km/h 33.6 km/h 98 % 0 mm
08:51 -14.8 °C -14.4 °C 34097 hPa SSW 14 km/h 34.1 km/h 98 % 0 mm
08:56 -14.8 °C -14.4 °C 34097 hPa SSW 18.7 km/h 34.1 km/h 98 % 0 mm
09:04 -14.7 °C -14.4 °C 34097 hPa SSW 20.9 km/h 39.9 km/h 98 % 0 mm
09:10 -14.7 °C -14.4 °C 34097 hPa SW 19.6 km/h 39.9 km/h 98 % 0 mm
09:15 -14.6 °C -14.4 °C 34097 hPa SSW 24.3 km/h 39.4 km/h 98 % 0 mm
09:22 -14.6 °C -14.4 °C 34097 hPa SW 19.6 km/h 34.1 km/h 98 % 0 mm
10:02 -14.3 °C -14.4 °C 34063.2 hPa SSW 33.2 km/h 38.3 km/h 96 % 0 mm
10:11 -14.3 °C -14.4 °C 34063.2 hPa SSW 27.2 km/h 45.1 km/h 96 % 0 mm
10:29 -14.2 °C -14.4 °C 34063.2 hPa South 26.2 km/h 44.6 km/h 94 % 0 mm
10:39 -14.2 °C -14.4 °C 34063.2 hPa SSW 39.4 km/h 40.7 km/h 94 % 0 mm
10:44 -14.2 °C -14.4 °C 34029.3 hPa SSW 23 km/h 45.1 km/h 94 % 0 mm
11:06 -14.2 °C -14.4 °C 33992.1 hPa SSW 33.2 km/h 43.5 km/h 94 % 12.7 mm
11:25 -14.2 °C -14.4 °C 34063.2 hPa SSW 20.9 km/h 48.1 km/h 94 % 20.32 mm
11:36 -14.2 °C -14.4 °C 33992.1 hPa SSW 31.4 km/h 54.4 km/h 94 % 20.32 mm
11:47 -14.3 °C -14.4 °C 33924.3 hPa SSW 17.4 km/h 57.3 km/h 98 % 12.7 mm
11:59 -14.3 °C -14.4 °C 33958.2 hPa SW 43.5 km/h 52.8 km/h 98 % 7.62 mm
12:05 -14.3 °C -14.4 °C 33958.2 hPa SSW 41.7 km/h 62.6 km/h 98 % 7.62 mm
12:11 -14.3 °C -14.4 °C 33924.3 hPa SW 23 km/h 43.5 km/h 98 % 7.62 mm
12:21 -14.3 °C -14.4 °C 33924.3 hPa SW 25.4 km/h 57.3 km/h 98 % 0 mm
12:32 -14.3 °C -14.4 °C 33924.3 hPa SSW 39.4 km/h 69.4 km/h 98 % 0 mm
12:42 -14.3 °C -14.4 °C 33890.5 hPa SSW 19.6 km/h 50.5 km/h 98 % 0 mm
12:52 -14.3 °C -14.4 °C 33890.5 hPa South 43.5 km/h 59.1 km/h 98 % 7.62 mm
12:59 -14.1 °C -13.9 °C 33890.5 hPa South 28.5 km/h 48.6 km/h 98 % 7.62 mm
13:04 -14.1 °C -13.9 °C 33890.5 hPa SW 26.7 km/h 59.1 km/h 98 % 7.62 mm
13:14 -14.1 °C -13.9 °C 33856.6 hPa South 26.7 km/h 55.7 km/h 98 % 7.62 mm
13:21 -14.1 °C -13.9 °C 33856.6 hPa SSW 28.5 km/h 45.1 km/h 98 % 7.62 mm
13:30 -14.1 °C -13.9 °C 33822.8 hPa SSW 26.2 km/h 59.5 km/h 98 % 7.62 mm
13:40 -14.1 °C -13.9 °C 33822.8 hPa South 25.4 km/h 62 km/h 98 % 7.62 mm
13:58 -14.1 °C -13.9 °C 33788.9 hPa SSW 29.5 km/h 51.5 km/h 98 % 7.62 mm
14:17 -13.9 °C -13.9 °C 33788.9 hPa South 33.2 km/h 49.2 km/h 98 % 25.4 mm
14:29 -13.9 °C -13.9 °C 33751.6 hPa SSW 44.6 km/h 58.6 km/h 98 % 33.02 mm
14:37 -13.9 °C -13.9 °C 33751.6 hPa SW 32.3 km/h 65 km/h 98 % 38.1 mm
14:42 -13.9 °C -13.9 °C 33751.6 hPa SSW 38.3 km/h 65 km/h 98 % 45.72 mm
14:52 -13.8 °C -13.9 °C 33751.6 hPa SSW 34.1 km/h 62.6 km/h 98 % 45.72 mm
15:01 -13.8 °C -13.9 °C 33731.3 hPa South 26.7 km/h 60.8 km/h 98 % 58.42 mm
15:06 -13.8 °C -13.9 °C 33731.3 hPa South 27.7 km/h 56.6 km/h 98 % 63.5 mm
15:19 -13.8 °C -13.9 °C 33694.1 hPa SSW 37 km/h 45.9 km/h 98 % 58.42 mm
15:24 -13.8 °C -13.9 °C 33694.1 hPa SSW 33.2 km/h 56.6 km/h 98 % 45.72 mm
15:31 -13.8 °C -13.9 °C 33694.1 hPa SSW 30.7 km/h 56.6 km/h 98 % 45.72 mm
15:40 -13.8 °C -13.9 °C 33694.1 hPa SSW 22.5 km/h 58.6 km/h 98 % 58.42 mm
15:57 -13.8 °C -13.9 °C 33660.2 hPa SSW 34.1 km/h 51 km/h 98 % 58.42 mm
16:03 -13.8 °C -13.9 °C 33660.2 hPa SSW 33.6 km/h 60.8 km/h 98 % 45.72 mm
16:12 -13.7 °C -13.9 °C 33660.2 hPa SSW 27.2 km/h 45.1 km/h 98 % 45.72 mm
16:18 -13.7 °C -13.9 °C 33660.2 hPa SSW 46.3 km/h 51.5 km/h 98 % 38.1 mm
16:25 -13.6 °C -13.3 °C 33660.2 hPa SW 31.9 km/h 51.5 km/h 98 % 38.1 mm
16:37 -13.5 °C -13.3 °C 33626.4 hPa South 35.2 km/h 50.5 km/h 98 % 25.4 mm
16:42 -13.5 °C -13.3 °C 33592.5 hPa WSW 27.2 km/h 48.1 km/h 98 % 20.32 mm
16:51 -13.4 °C -13.3 °C 33592.5 hPa SSW 33.2 km/h 56.6 km/h 98 % 7.62 mm
17:00 -13.4 °C -13.3 °C 33626.4 hPa SSW 26.7 km/h 59.1 km/h 98 % 7.62 mm
17:07 -13.4 °C -13.3 °C 33626.4 hPa WSW 33.6 km/h 59.1 km/h 98 % 7.62 mm
17:13 -13.3 °C -13.3 °C 33626.4 hPa SSW 41.2 km/h 45.1 km/h 98 % 0 mm
17:18 -13.3 °C -13.3 °C 33626.4 hPa SSW 22 km/h 55.7 km/h 98 % 0 mm
17:23 -13.3 °C -13.3 °C 33626.4 hPa SSW 28.5 km/h 55.7 km/h 98 % 0 mm
17:32 -13.2 °C -13.3 °C 33626.4 hPa SW 33.6 km/h 51.5 km/h 98 % 0 mm
17:43 -13.2 °C -12.8 °C 33626.4 hPa SSW 26.7 km/h 39.9 km/h 98 % 0 mm
17:49 -13.1 °C -12.8 °C 33626.4 hPa SW 22.5 km/h 45.1 km/h 98 % 0 mm
18:01 -12.9 °C -12.8 °C 33626.4 hPa SW 26.7 km/h 45.1 km/h 98 % 20.32 mm
18:11 -12.9 °C -12.8 °C 33626.4 hPa WSW 27.2 km/h 43.5 km/h 98 % 58.42 mm
18:19 -12.9 °C -12.8 °C 33626.4 hPa SW 17.4 km/h 27.2 km/h 98 % 63.5 mm
18:27 -12.9 °C -12.8 °C 33660.2 hPa SW 15 km/h 22.5 km/h 98 % 63.5 mm
18:34 -12.8 °C -12.8 °C 33660.2 hPa WSW 28.5 km/h 30.7 km/h 98 % 63.5 mm
18:42 -12.7 °C -12.8 °C 33626.4 hPa WSW 20.9 km/h 32.3 km/h 98 % 63.5 mm
18:49 -12.7 °C -12.8 °C 33626.4 hPa WSW 22 km/h 33.2 km/h 98 % 63.5 mm
18:55 -12.6 °C -12.8 °C 33626.4 hPa West 19.6 km/h 39.4 km/h 98 % 58.42 mm
19:34 -12.6 °C -12.8 °C 33626.4 hPa WSW 26.7 km/h 44.6 km/h 98 % 0 mm
19:39 -12.6 °C -12.8 °C 33626.4 hPa West 20.3 km/h 44.1 km/h 98 % 0 mm
19:48 -12.7 °C -12.8 °C 33626.4 hPa West 42.2 km/h 42.2 km/h 98 % 0 mm
20:07 -12.7 °C -12.8 °C 33626.4 hPa West 26.7 km/h 44.6 km/h 98 % 7.62 mm
20:14 -12.7 °C -12.8 °C 33660.2 hPa West 41.2 km/h 44.6 km/h 98 % 7.62 mm
20:21 -12.8 °C -12.8 °C 33660.2 hPa West 28.5 km/h 45.9 km/h 98 % 7.62 mm
20:27 -12.8 °C -12.8 °C 33660.2 hPa West 20.3 km/h 45.9 km/h 98 % 7.62 mm
20:37 -12.7 °C -12.8 °C 33660.2 hPa West 25.4 km/h 45.1 km/h 98 % 7.62 mm
20:43 -12.7 °C -12.8 °C 33660.2 hPa WSW 37.5 km/h 60.3 km/h 98 % 7.62 mm
21:13 -12.8 °C -13.3 °C 33660.2 hPa West 20.3 km/h 51.5 km/h 93 % 0 mm
21:37 -12.8 °C -13.3 °C 33694.1 hPa WNW 6.9 km/h 43.5 km/h 93 % 0 mm
21:46 -13.1 °C -13.3 °C 33694.1 hPa West 22.5 km/h 22.5 km/h 92 % 0 mm
21:47 -13.1 °C -13.3 °C 33694.1 hPa West 9.8 km/h 22.5 km/h 92 % 0 mm
21:48 -13.1 °C -13.3 °C 33694.1 hPa NW 6.9 km/h 22.5 km/h 92 % 0 mm
21:49 -13.1 °C -13.3 °C 33694.1 hPa WNW 6.9 km/h 22.5 km/h 92 % 0 mm
21:50 -13.1 °C -13.3 °C 33694.1 hPa WSW 7.6 km/h 22.5 km/h 92 % 0 mm
21:53 -13.1 °C -13.3 °C 33694.1 hPa WNW 9.8 km/h 22.5 km/h 92 % 0 mm
21:58 -13.1 °C -13.3 °C 33694.1 hPa North 6.4 km/h 15 km/h 92 % 0 mm
22:02 -13.1 °C -13.3 °C 33694.1 hPa Calm   16.9 km/h 92 % 0 mm
22:06 -13.1 °C -13.3 °C 33694.1 hPa WSW 14.5 km/h 16.9 km/h 92 % 0 mm
22:13 -13.1 °C -13.3 °C 33694.1 hPa SW 12.7 km/h 15 km/h 92 % 0 mm
22:17 -13.1 °C -13.3 °C 33694.1 hPa West 22.5 km/h 22.5 km/h 92 % 0 mm
22:25 -13.1 °C -13.3 °C 33694.1 hPa West 20.3 km/h 49.7 km/h 92 % 0 mm
23:01 -13.7 °C -14.4 °C 33694.1 hPa WSW 27.2 km/h 40.7 km/h 92 % 0 mm
23:08 -13.8 °C -14.4 °C 33694.1 hPa WSW 27.7 km/h 45.9 km/h 92 % 0 mm
23:17 -13.7 °C -14.4 °C 33694.1 hPa West 33.6 km/h 44.1 km/h 92 % 0 mm
23:30 -13.8 °C -14.4 °C 33694.1 hPa WSW 33.2 km/h 39.4 km/h 91 % 0 mm
23:44 -13.8 °C -14.4 °C 33694.1 hPa West 34.1 km/h 40.7 km/h 91 % 0 mm
23:55 -13.8 °C -14.4 °C 33694.1 hPa West 39.4 km/h 45.9 km/h 90 % 0 mm
Le Gheer Warneton
Courtoisie de Weather Underground - 1.5 mb

Mise a jour : 21/02/2018 02:22:11
Généré par Cumulus 1.9.4 (1099)